Location: Anumalkud?ru
(16.4847°N, 80.6636°E)
Time: 09:31:04
(UTC+00:00)

Ariane H10-3 - Pass Details

Date: 11 April 2026
Orbit: 469 x 36370 km, 5.1° (Epoch: 11 May)

Event Time Altitude Azimuth Distance (km) Brightness Sun altitude
Exits shadow 22:35:04 18° 186° (S) 2,579 4.4 -26.3°
Maximum altitude 06:47:29 38° 103° (ESE) 28,930 10.6 81.9°
Drops below altitude 10° 08:27:45 10° 101° (E) 14,209 8.3 62.2°
Sets 08:36:27 0° 99° (E) 13,010 8.0 60.2°
